Regional Weather Roundup
Issued by NWS

Home | Current Version | Previous Version | Graphics & Text | Print | Product List | Glossary On
Versions: 1 2 3 4 5 6 7 8 9 10 11 12 13 14 15 16 17 18 19 20 21 22 23 24 25 26 27
000
ASUS45 KPSR 242310
RWRAZ

ARIZONA HOURLY REGIONAL WEATHER ROUNDUP
NATIONAL WEATHER SERVICE PHOENIX AZ
400 PM MST MON JUL 24 2017

NOTE: FAIR INDICATES FEW OR NO CLOUDS BELOW 12,000 FEET WITH NO
SIGNIFICANT WEATHER AND/OR OBSTRUCTIONS TO VISIBILITY.

AZZ001>003-036-250000-
NORTHWEST ARIZONA

CITY           SKY/WX    TMP DP  RH WIND       PRES   REMARKS
BULLHEAD CITY  PTSUNNY   99  64  32 S14       29.76F HX 101
KINGMAN        PTSUNNY   82  63  52 N8        29.98F
$$

AZZ004>008-015-016-018-250000-
NORTH CENTRAL ARIZONA

CITY           SKY/WX    TMP DP  RH WIND       PRES   REMARKS
GRAND CANYON   CLOUDY    75  53  46 S8        30.20F
WILLIAMS       CLOUDY    73  59  60 VRB7      30.21F
PRESCOTT       CLOUDY    76  65  68 SE13      30.10F
FLAGSTAFF      CLOUDY    69  58  67 VRB3      30.23F
PAYSON         CLOUDY    75  64  69 VRB5      30.14F
PAGE           PTSUNNY   87  58  37 SW8       29.98F
$$

AZZ009>014-017-250000-
NORTHEAST ARIZONA

CITY           SKY/WX    TMP DP  RH WIND       PRES   REMARKS
WINSLOW        CLOUDY    76  65  68 SW3       30.10F
SAINT JOHNS    CLOUDY    71  65  81 NW7       30.19R
WINDOW ROCK    LGT RAIN  68  62  81 SW3       30.21F
SHOW LOW       LGT RAIN  63  59  88 S7        30.24S
$$

AZZ540-542>544-546-548-250000-
GREATER PHOENIX AREA

CITY           SKY/WX    TMP DP  RH WIND       PRES   REMARKS
PHOENIX        CLOUDY    88  71  57 CALM      29.84F
BUCKEYE        PTSUNNY   82  75  78 S5        29.86F
GLENDALE       PTSUNNY   86  73  66 CALM      29.87F
LUKE AFB       PTSUNNY   85  72  64 E5        29.84F
DEER VALLEY    PTSUNNY   85  71  63 S6        29.86
SCOTTSDALE     PTSUNNY   87  69  54 VRB5      29.88F
MESA-FALCON    PTSUNNY  N/A N/A N/A S6        29.88F
MESA-GATEWAY   PTSUNNY   84  72  65 SW3       29.88
CHANDLER       PTSUNNY   88  72  58 VRB6      29.87F
$$

AZZ539-553-250000-
SOUTHWEST MARICOPA COUNTY AND PINAL COUNTY

CITY           SKY/WX    TMP DP  RH WIND       PRES   REMARKS
CASA GRANDE    CLOUDY    87  73  62 S6        29.89F
GILA BEND      PTSUNNY   88  74  63 N7        29.82F
$$

AZZ503-504-507>509-250000-
SOUTHEAST ARIZONA

CITY           SKY/WX    TMP DP  RH WIND       PRES   REMARKS
TUCSON         PTSUNNY   84  69  60 N8        29.97F
DAVIS-MONTHAN  MOSUNNY   81  71  71 NW6       29.96F
RYAN FIELD     LGT RAIN  79  73  83 W5        29.97
NOGALES        PTSUNNY   82  67  60 VRB6      30.03F
SIERRA VISTA   CLOUDY    70  66  88 NW9       30.11S
DOUGLAS        MOSUNNY   79  67  66 MISG      30.03S
SAFFORD        LGT RAIN  72  70  93 W8        30.00F
$$

AZZ532-250000-
SOUTHWEST ARIZONA

CITY           SKY/WX    TMP DP  RH WIND       PRES   REMARKS
YUMA           MOSUNNY   98  67  36 E8        29.74F HX 102
$$

CAZ041-043-047-048-061-525>527-560>570-250000-
SOUTHERN CALIFORNIA

CITY           SKY/WX    TMP DP  RH WIND       PRES   REMARKS
DOWNTOWN L.A.  CLOUDY    77  65  66 VRB3      29.86F
L.A. AIRPORT   CLOUDY    73  65  75 SW10      29.87F
SAN DIEGO      PTSUNNY   76  63  64 W10       29.89F
BURBANK        CLOUDY    78  61  55 S9        29.87F
ONTARIO        CLOUDY    81  61  50 W8        29.88F
RIVERSIDE      CLOUDY    81  63  54 W8        29.87F
PALM SPRINGS   MOSUNNY   99  65  32 VRB5      29.77F HX 102
EL CENTRO NAS  PTSUNNY   97  62  31 E10       29.74F
IMPERIAL       PTSUNNY  100  66  32 SE13      29.73F HX 104
BLYTHE         MOSUNNY   97  71  42 SE9G17    29.77F HX 104
NEEDLES        CLOUDY    98  64  32 S7        29.79F HX 100
$$

NVZ020-UTZ003-250000-
SOUTHERN NEVADA-UTAH

CITY           SKY/WX    TMP DP  RH WIND       PRES   REMARKS
LAS VEGAS      CLOUDY    94  60  32 SW7       29.83F
SALT LAKE CITY PTSUNNY   97  43  15 N7        29.90F
$$

NMZ009-TXZ055-250000-
NEW MEXICO-WEST TEXAS

CITY           SKY/WX    TMP DP  RH WIND       PRES   REMARKS
ALBUQUERQUE    PTSUNNY   88  51  28 SW9       30.08F
EL PASO        MOSUNNY   92  58  31 VRB7      29.98F
$$


........................KEY........................
SKY/WX - SKY CONDITION/WEATHER
TMP    - TEMPERATURE IN FAHRENHEIT
DP     - DEW POINT IN FAHRENHEIT
RH     - RELATIVE HUMIDITY IN PERCENT
WIND   - DIRECTION AND SPEED IN MILES PER HOUR (MPH)
VRB    - VARIABLE WIND DIRECTION
PRES   - MEAN SEA LEVEL PRESSURE IN INCHES OF MERCURY
         F - FALLING PRESSURE   R - RISING PRESSURE
         S - STEADY PRESSURE
VSB    - VISIBILITY IN MILES
HX     - HEAT INDEX IN FAHRENHEIT
WCI    - WIND CHILL INDEX IN FAHRENHEIT
TC     - TEMPERATURE IN CELSIUS WHICH IS ALSO KNOWN AS
         TEMPERATURE IN CENTIGRADE
AFB    - AIR FORCE BASE
         LUKE AFB IS LUKE AIR FORCE BASE
         DAVIS-MONTHAN IS DAVIS-MONTHAN AIR FORCE BASE
NAS    - NAVAL AIR STATION
         EL CENTRO NAS IS EL CENTRO NAVAL AIR STATION
N/A    - NOT AVAILABLE





USA.gov is the U.S. government's official web portal to all federal, state and local government web resources and services.